Location: De Har
(53.3413°N, 6.6858°E)
Time: 21:24:45
(UTC+00:00)

NOSS 3-3 (C) - Pass Details

Date: 22 April 2026
Orbit: 697 x 1516 km, 63.4° (Epoch: 11 January)

Event Time Altitude Azimuth Distance (km) Brightness Sun altitude
Exits shadow 03:17:53 10° 250° (WSW) 2,414 5.5 -8.8°
Reaches altitude 10° 03:17:54 10° 250° (WSW) 2,412 5.5 -8.8°
Maximum altitude 03:23:22 57° 330° (NNW) 1,089 4.3 -8.1°
Drops below altitude 10° 03:30:04 10° 48° (NE) 2,937 8.2 -7.3°
Sets 03:33:06 0° 53° (NE) 4,032 9.7 -6.9°
